Погода в Приветном

Россия / Республика Крым     45°06′51″N   35°03′31″E
темп.,
°C
ветер,
м/с
пор.,
м/с
влажн.,
%
обл.,
%
осадки,
мм/ч
давл.,
гПа
погр.,
м
12 апреля, пн
пн1200:00+6сз2394100 2.8 1020186
03:00+6ссз2396100 6.2 1019146
06:00+6сз1197100 0.0 1019129
09:00+7ссз0095100 0.0 1020150
12:00+10юв2286100 0.1 1020583
15:00+11ююв218061 0.1 1020564
18:00+10ююв2285100 0.0 1020271
21:00+8ю239567 0.0 1022118
13 апреля, вт
вт1300:00+7юз229369 0.0 1022127
03:00+7ююз2293100 0.0 102286
06:00+7ю0193100 0.0 102221
09:00+9зюз1184100 0.0 1022274
12:00+12ююв226982 0.1 1021991
15:00+12ю336472 0.1 10211048
18:00+10ю2273100 0.0 1021463
21:00+7ю2389100 0.0 1021123
14 апреля, ср
ср1400:00+6ююз348984 0.0 102082
03:00+5ююз3396100 0.0 101973
06:00+4ююз239511 0.0 101964
09:00+9ю35682 0.0 1018535
12:00+11ю57614 0.0 1018785
15:00+11ю5857100 0.0 1016747
18:00+9ю4673100 0.0 1016415
21:00+7ю349146 0.0 1016149
15 апреля, чт
чт1500:00+6ю349528 0.0 1015107
03:00+6ююз3392100 0.0 101549
06:00+7ююз2493100 0.7 1015140
09:00+9ю358994 1.4 1014390
12:00+10ююз358462 0.1 1015566
15:00+11ююз447463 0.3 1015727
18:00+10сз117370 0.0 1015506
21:00+7юв11882 0.0 101611
16 апреля, пт
пт1600:00+5ююв119524 0.0 101620
03:00+5ссз1195100 0.0 101690
06:00+4зсз018819 0.0 101722
09:00+9зсз13623 0.0 1017657
12:00+9юв337195 0.0 1018790
15:00+12ю235976 0.1 10171263
18:00+10ююз226759 0.3 1017420
21:00+7ююз128399 0.4 101970